When you browse on this site, cookies collect data to enhance your experience and personalize the content and advertising you see.
Visit our Privacy Policy to learn more. By continuing to use the site, you agree to this use of cookies and data.

Hourly Weather Klodne

Today, 15 August, Saturday

Time Temperature Precipitation Wind Pressure Humidity
00:00 +16°C° 0 mm 1 mps 713 mmHg 89%
01:00 +14°C° 0 mm 0 mps 713 mmHg 90%
02:00 +14°C° 0 mm 0 mps 713 mmHg 91%
03:00 +14°C° 0 mm 0 mps 713 mmHg 91%
04:00 +14°C° 0 mm 0 mps 713 mmHg 92%
05:00 +15°C° 0 mm 0 mps 713 mmHg 87%
06:00 +16°C° 0 mm 0 mps 713 mmHg 83%
07:00 +18°C° 0 mm 0 mps 713 mmHg 79%
08:00 +21°C° 0.1 mm 1 mps 714 mmHg 73%
09:00 +23°C° 0.1 mm 1 mps 714 mmHg 68%
10:00 +24°C° 0.1 mm 2 mps 714 mmHg 63%
11:00 +24°C° 0.6 mm 2 mps 714 mmHg 64%
12:00 +24°C° 0.6 mm 3 mps 714 mmHg 64%
13:00 +24°C° 0.6 mm 3 mps 714 mmHg 65%
14:00 +24°C° 0.6 mm 3 mps 714 mmHg 67%
15:00 +24°C° 0.6 mm 3 mps 714 mmHg 68%
16:00 +24°C° 0.6 mm 3 mps 714 mmHg 70%
17:00 +21°C° 0.3 mm 3 mps 713 mmHg 75%
18:00 +20°C° 0.3 mm 2 mps 713 mmHg 80%
19:00 +18°C° 0.3 mm 2 mps 713 mmHg 85%
20:00 +18°C° 0 mm 2 mps 713 mmHg 88%
21:00 +18°C° 0 mm 1 mps 713 mmHg 90%
22:00 +16°C° 0 mm 1 mps 714 mmHg 93%
23:00 +16°C° 0 mm 1 mps 713 mmHg 94%

Tomorrow, 16 August, Sunday

Time Temperature Precipitation Wind Pressure Humidity
00:00 +16°C° 0 mm 1 mps 713 mmHg 94%
01:00 +16°C° 0 mm 1 mps 713 mmHg 95%
02:00 +15°C° 0 mm 1 mps 713 mmHg 95%
03:00 +15°C° 0 mm 1 mps 713 mmHg 96%
04:00 +15°C° 0 mm 1 mps 713 mmHg 96%
05:00 +15°C° 0 mm 1 mps 713 mmHg 94%
06:00 +15°C° 0 mm 1 mps 713 mmHg 91%
07:00 +16°C° 0 mm 1 mps 713 mmHg 89%
08:00 +16°C° 0 mm 1 mps 714 mmHg 86%
09:00 +18°C° 0 mm 1 mps 714 mmHg 83%
10:00 +19°C° 0 mm 1 mps 714 mmHg 80%
11:00 +20°C° 0 mm 1 mps 714 mmHg 78%
12:00 +21°C° 0 mm 1 mps 714 mmHg 75%
13:00 +22°C° 0 mm 1 mps 714 mmHg 73%
14:00 +23°C° 0.1 mm 1 mps 714 mmHg 70%
15:00 +24°C° 0.1 mm 1 mps 714 mmHg 68%
16:00 +24°C° 0.1 mm 1 mps 714 mmHg 65%
17:00 +23°C° 0.5 mm 1 mps 714 mmHg 73%
18:00 +21°C° 0.5 mm 1 mps 713 mmHg 81%
19:00 +20°C° 0.5 mm 1 mps 713 mmHg 89%
20:00 +19°C° 0.1 mm 1 mps 713 mmHg 90%
21:00 +18°C° 0.1 mm 1 mps 713 mmHg 91%
22:00 +18°C° 0.1 mm 1 mps 713 mmHg 92%
23:00 +16°C° 0 mm 1 mps 713 mmHg 92%

Day after tomorrow, 17 August, Monday

Time Temperature Precipitation Wind Pressure Humidity
00:00 +16°C° 0 mm 1 mps 713 mmHg 91%
01:00 +16°C° 0 mm 1 mps 713 mmHg 91%
02:00 +15°C° 0 mm 1 mps 713 mmHg 91%
03:00 +15°C° 0 mm 1 mps 712 mmHg 92%
04:00 +15°C° 0 mm 1 mps 712 mmHg 92%
05:00 +16°C° 0 mm 1 mps 713 mmHg 88%
06:00 +19°C° 0 mm 1 mps 713 mmHg 85%
07:00 +20°C° 0 mm 1 mps 713 mmHg 82%
08:00 +22°C° 0.2 mm 1 mps 713 mmHg 75%
09:00 +24°C° 0.2 mm 1 mps 713 mmHg 67%
10:00 +27°C° 0.2 mm 1 mps 714 mmHg 60%
11:00 +27°C° 0.9 mm 1 mps 713 mmHg 59%
12:00 +27°C° 0.9 mm 1 mps 713 mmHg 59%
13:00 +28°C° 0.9 mm 1 mps 713 mmHg 59%
14:00 +27°C° 0.3 mm 1 mps 713 mmHg 60%
15:00 +27°C° 0.3 mm 1 mps 712 mmHg 61%
16:00 +27°C° 0.3 mm 1 mps 712 mmHg 62%
17:00 +25°C° 0.1 mm 1 mps 712 mmHg 69%
18:00 +23°C° 0.1 mm 1 mps 712 mmHg 75%
19:00 +21°C° 0.1 mm 1 mps 711 mmHg 81%
20:00 +21°C° 0.1 mm 1 mps 711 mmHg 83%
21:00 +20°C° 0.1 mm 1 mps 711 mmHg 85%
22:00 +19°C° 0.1 mm 1 mps 711 mmHg 88%
23:00 +19°C° 0 mm 1 mps 711 mmHg 88%

18 August, Tuesday

Time Temperature Precipitation Wind Pressure Humidity
00:00 +18°C° 0 mm 1 mps 711 mmHg 89%
01:00 +18°C° 0 mm 1 mps 711 mmHg 89%
02:00 +18°C° 0.4 mm 1 mps 710 mmHg 91%
03:00 +18°C° 0.4 mm 1 mps 710 mmHg 93%
04:00 +18°C° 0.4 mm 1 mps 710 mmHg 94%
05:00 +18°C° 0.1 mm 1 mps 710 mmHg 93%
06:00 +19°C° 0.1 mm 1 mps 710 mmHg 92%
07:00 +20°C° 0.1 mm 1 mps 710 mmHg 90%
08:00 +21°C° 0.2 mm 1 mps 711 mmHg 84%
09:00 +23°C° 0.2 mm 2 mps 711 mmHg 77%
10:00 +25°C° 0.2 mm 2 mps 711 mmHg 71%
11:00 +25°C° 0.9 mm 3 mps 711 mmHg 72%
12:00 +25°C° 0.9 mm 3 mps 711 mmHg 74%
13:00 +24°C° 0.9 mm 3 mps 711 mmHg 75%
14:00 +24°C° 0.3 mm 3 mps 711 mmHg 74%
15:00 +24°C° 0.3 mm 3 mps 711 mmHg 74%
16:00 +24°C° 0.3 mm 2 mps 710 mmHg 74%
17:00 +21°C° 0.1 mm 2 mps 710 mmHg 78%
18:00 +21°C° 0.1 mm 1 mps 710 mmHg 83%
19:00 +20°C° 0.1 mm 1 mps 710 mmHg 88%
20:00 +19°C° 0 mm 1 mps 710 mmHg 90%
21:00 +18°C° 0 mm 1 mps 710 mmHg 91%
22:00 +16°C° 0 mm 0 mps 710 mmHg 93%
23:00 +18°C° 0 mm 1 mps 710 mmHg 93%

19 August, Wednesday

Time Temperature Precipitation Wind Pressure Humidity
00:00 +16°C° 0 mm 1 mps 710 mmHg 93%
01:00 +16°C° 0 mm 1 mps 710 mmHg 94%
02:00 +16°C° 0 mm 1 mps 710 mmHg 93%
03:00 +15°C° 0 mm 0 mps 710 mmHg 93%
04:00 +15°C° 0 mm 0 mps 710 mmHg 93%
05:00 +16°C° 0.1 mm 0 mps 710 mmHg 91%
06:00 +17°C° 0.1 mm 0 mps 710 mmHg 89%
07:00 +18°C° 0.1 mm 0 mps 710 mmHg 86%
08:00 +19°C° 0.3 mm 0 mps 711 mmHg 82%
09:00 +19°C° 0.3 mm 0 mps 711 mmHg 77%
10:00 +20°C° 0.3 mm 0 mps 711 mmHg 73%
11:00 +20°C° 0.1 mm 0 mps 711 mmHg 72%
12:00 +23°C° 0.1 mm 1 mps 710 mmHg 70%
13:00 +23°C° 0.1 mm 1 mps 710 mmHg 69%
14:00 +22°C° 0.2 mm 1 mps 710 mmHg 71%
15:00 +22°C° 0.2 mm 1 mps 710 mmHg 72%
16:00 +22°C° 0.2 mm 1 mps 710 mmHg 74%
17:00 +20°C° 0 mm 1 mps 710 mmHg 78%
18:00 +19°C° 0 mm 1 mps 709 mmHg 82%
19:00 +18°C° 0 mm 1 mps 709 mmHg 86%
20:00 +18°C° 0 mm 1 mps 709 mmHg 87%
21:00 +16°C° 0 mm 1 mps 710 mmHg 87%
22:00 +16°C° 0 mm 1 mps 710 mmHg 88%
23:00 +16°C° 0 mm 1 mps 710 mmHg 88%

20 August, Thursday

Time Temperature Precipitation Wind Pressure Humidity
00:00 +15°C° 0 mm 1 mps 710 mmHg 89%
01:00 +15°C° 0 mm 1 mps 710 mmHg 90%
02:00 +15°C° 0 mm 1 mps 710 mmHg 89%
03:00 +16°C° 0 mm 1 mps 710 mmHg 89%
04:00 +16°C° 0 mm 1 mps 711 mmHg 88%
05:00 +16°C° 0 mm 1 mps 711 mmHg 87%
06:00 +18°C° 0 mm 1 mps 711 mmHg 85%
07:00 +18°C° 0 mm 2 mps 711 mmHg 84%
08:00 +18°C° 0.3 mm 2 mps 712 mmHg 80%
09:00 +19°C° 0.3 mm 2 mps 712 mmHg 76%
10:00 +20°C° 0.3 mm 2 mps 713 mmHg 73%
11:00 +21°C° 0.1 mm 2 mps 713 mmHg 67%
12:00 +23°C° 0.1 mm 2 mps 713 mmHg 61%
13:00 +24°C° 0.1 mm 3 mps 713 mmHg 55%
14:00 +24°C° 0.6 mm 3 mps 713 mmHg 61%
15:00 +22°C° 0.6 mm 3 mps 713 mmHg 67%
16:00 +23°C° 0.6 mm 2 mps 713 mmHg 73%
17:00 +20°C° 0.2 mm 2 mps 713 mmHg 77%
18:00 +19°C° 0.2 mm 1 mps 713 mmHg 82%
19:00 +18°C° 0.2 mm 1 mps 713 mmHg 86%
20:00 +16°C° 0 mm 1 mps 713 mmHg 87%
21:00 +16°C° 0 mm 1 mps 713 mmHg 88%
22:00 +15°C° 0 mm 1 mps 714 mmHg 89%
23:00 +14°C° 0 mm 1 mps 714 mmHg 90%
Show more